Simultaneous Nadir Overpasses (SNOs) Predictions

Prediction of SNOs between NOAA-20 and METOP-B Satellite Orbit:

Table of predicted SNOs for the next 14.0 days since TLE Epoch: 7/15/2024
Index Date (NOAA-20) Time (NOAA-20) Lat,Lon (NOAA-20) SZA (NOAA-20 ) Date (METOP-B) Time (METOP-B) Lat,Lon (METOP-B) SZA (METOP-B ) Distance(km) Time Diff (sec)
1 07/22/2024 11:50:24 -74.12, 171.12 125.63 07/22/2024 11:51:30 -74.04, 174.17 125.91 93.31 66
2 07/22/2024 12:41:05 73.87, -20.95 54.10 07/22/2024 12:42:14 73.82, -19.02 53.92 59.93 69
3 07/22/2024 13:31:48 -73.83, 146.46 125.94 07/22/2024 13:32:58 -73.73, 148.09 126.16 51.88 70
4 07/22/2024 14:22:29 73.57, -45.63 53.78 07/22/2024 14:23:42 73.51, -45.08 53.67 18.63 73
5 07/22/2024 15:13:12 -73.54, 121.77 126.26 07/22/2024 15:14:25 -73.47, 122.16 126.36 13.98 73
6 07/22/2024 16:03:56 73.43, -70.67 53.63 07/22/2024 16:05:06 73.40, -70.67 53.59 2.74 70
7 07/22/2024 16:54:39 -73.39, 96.72 126.41 07/22/2024 16:55:48 -73.41, 96.68 126.40 2.96 69
8 07/22/2024 17:45:25 73.38, -95.95 53.59 07/22/2024 17:46:28 73.39, -96.04 53.59 3.09 63
9 07/22/2024 18:36:09 -73.39, 71.34 126.39 07/22/2024 18:37:10 -73.40, 71.31 126.39 1.27 61
10 07/22/2024 19:26:55 73.38,-121.33 53.61 07/22/2024 19:27:50 73.38,-121.40 53.60 2.33 55
11 07/22/2024 20:17:39 -73.40, 45.96 126.37 07/22/2024 20:18:32 -73.39, 45.95 126.39 0.81 53
12 07/22/2024 21:08:25 73.39,-146.71 53.63 07/22/2024 21:09:12 73.37,-146.77 53.60 2.77 47
13 07/22/2024 21:59:09 -73.40, 20.57 126.35 07/22/2024 21:59:54 -73.38, 20.58 126.38 2.42 45
14 07/22/2024 22:49:55 73.39,-172.10 53.65 07/22/2024 22:50:33 73.41,-172.02 53.65 3.02 38
15 07/22/2024 23:40:38 -73.36, -4.70 126.39 07/22/2024 23:41:16 -73.37, -4.78 126.38 3.07 38
16 07/23/2024 00:31:25 73.40, 162.52 53.67 07/23/2024 00:31:55 73.40, 162.61 53.66 3.08 30
17 07/23/2024 01:22:08 -73.36, -30.08 126.37 07/23/2024 01:22:38 -73.36, -30.15 126.37 2.09 30
18 07/23/2024 02:12:54 73.35, 137.25 53.63 07/23/2024 02:13:18 73.34, 137.14 53.62 3.84 24
19 07/23/2024 03:03:38 -73.36, -55.47 126.35 07/23/2024 03:04:00 -73.35, -55.51 126.37 2.34 22
20 07/23/2024 03:54:24 73.36, 111.86 53.65 07/23/2024 03:54:39 73.38, 111.88 53.67 2.34 15
21 07/23/2024 04:45:08 -73.37, -80.85 126.33 07/23/2024 04:45:21 -73.39, -80.77 126.32 3.39 13
22 07/23/2024 05:35:54 73.36, 86.48 53.67 07/23/2024 05:36:01 73.37, 86.52 53.67 1.42 7
23 07/23/2024 06:26:38 -73.37,-106.23 126.31 07/23/2024 06:26:43 -73.38,-106.13 126.31 3.29 5
24 07/23/2024 07:17:24 73.36, 61.09 53.69 07/23/2024 07:17:23 73.35, 61.15 53.68 2.22 1
25 07/23/2024 08:08:07 -73.33,-131.51 126.35 07/23/2024 08:08:06 -73.32,-131.61 126.35 3.46 1
26 07/23/2024 08:58:53 73.32, 35.82 53.66 07/23/2024 08:58:45 73.34, 35.79 53.68 2.95 8
27 07/23/2024 09:49:37 -73.33,-156.89 126.33 07/23/2024 09:49:27 -73.36,-156.86 126.30 2.84 10
28 07/23/2024 10:40:23 73.32, 10.44 53.67 07/23/2024 10:40:07 73.33, 10.42 53.69 1.16 16
29 07/23/2024 11:31:07 -73.34, 177.73 126.31 07/23/2024 11:30:49 -73.34, 177.77 126.30 1.82 18
30 07/23/2024 12:21:53 73.33, -14.95 53.69 07/23/2024 12:21:29 73.32, -14.94 53.69 0.64 24
31 07/23/2024 13:12:37 -73.34, 152.34 126.29 07/23/2024 13:12:11 -73.33, 152.41 126.29 2.20 26
32 07/23/2024 14:03:23 73.33, -40.33 53.71 07/23/2024 14:02:51 73.31, -40.31 53.70 2.43 32
33 07/23/2024 14:54:06 -73.29, 127.07 126.33 07/23/2024 14:53:33 -73.32, 127.04 126.29 3.38 33
34 07/23/2024 15:44:52 73.29, -65.61 53.68 07/23/2024 15:44:13 73.30, -65.67 53.71 2.71 39
35 07/23/2024 16:35:36 -73.30, 101.68 126.31 07/23/2024 16:34:55 -73.31, 101.68 126.28 1.63 41
36 07/23/2024 17:26:22 73.29, -90.99 53.70 07/23/2024 17:25:35 73.29, -91.04 53.71 1.58 47
37 07/23/2024 18:17:06 -73.30, 76.30 126.29 07/23/2024 18:16:17 -73.30, 76.31 126.27 0.38 49
38 07/23/2024 19:07:52 73.29,-116.37 53.72 07/23/2024 19:06:57 73.28,-116.40 53.72 2.04 55
39 07/23/2024 19:58:35 -73.31, 50.92 126.27 07/23/2024 19:57:38 -73.29, 50.95 126.27 1.98 57
40 07/23/2024 20:49:21 73.30,-141.76 53.74 07/23/2024 20:48:18 73.27,-141.77 53.72 3.51 63
41 07/23/2024 21:40:04 -73.26, 25.64 126.30 07/23/2024 21:39:00 -73.28, 25.58 126.26 2.93 64
42 07/23/2024 22:30:50 73.25,-167.03 53.70 07/23/2024 22:29:40 73.26,-167.13 53.73 3.33 70
43 07/23/2024 23:21:34 -73.26, 0.26 126.28 07/23/2024 23:20:22 -73.27, 0.22 126.26 1.44 72
44 07/24/2024 00:12:17 73.11, 167.92 53.55 07/24/2024 00:11:04 73.14, 167.28 53.65 20.89 73
45 07/24/2024 01:03:00 -73.07, -24.69 126.49 07/24/2024 01:01:47 -73.11, -25.47 126.38 25.86 73
46 07/24/2024 01:53:41 72.81, 143.18 53.23 07/24/2024 01:52:32 72.83, 141.28 53.40 62.50 69
47 07/24/2024 02:44:24 -72.77, -49.43 126.80 07/24/2024 02:43:15 -72.79, -51.47 126.62 67.36 69



Historial Predications of SNOs between NOAA-20 and METOP-B
